Regional Weather Roundup
Issued by NWS

Home | Current Version | Previous Version | Graphics & Text | Print | Product List | Glossary On
Versions: 1 2 3 4 5 6 7 8 9 10 11 12 13 14 15 16 17 18 19 20 21 22 23 24 25 26 27 28 29 30 31 32 33 34 35 36 37 38 39 40 41 42 43 44 45 46 47 48 49 50
000
ASUS43 KMKX 271100
RWRWI

WISCONSIN REGIONAL WEATHER ROUNDUP
NATIONAL WEATHER SERVICE MILWAUKEE/SULLIVAN WI
600 AM CDT TUE SEP 27 2016

NOTE: "FAIR" INDICATES FEW OR NO CLOUDS BELOW 12,000 FEET WITH NO
SIGNIFICANT WEATHER AND/OR OBSTRUCTIONS TO VISIBILITY.

WIZ001-002-006>008-014>016-023>028-271200-
NORTHWEST WISCONSIN

CITY           SKY/WX    TMP DP  RH WIND       PRES   REMARKS
SUPERIOR ARPT  CLOUDY    52  46  79 NW15G21   29.70R
ASHLAND        LGT RAIN  49  47  93 W9        29.64S
HAYWARD        LGT RAIN  50  44  80 VRB3      29.70S
SIREN          CLOUDY    50  42  72 W13       29.75S
CUMBERLAND     CLOUDY    48  41  76 W14G21    29.74S
RICE LAKE      CLOUDY    50  41  71 W9G16     29.75S
CHETEK         NOT AVBL
LADYSMITH      DRIZZLE   52  43  73 W9        29.72S
EAU CLAIRE     NOT AVBL
MENOMONIE      CLOUDY    51  41  68 W14       29.77F
NEW RICHMOND   CLEAR     46  39  78 W10       29.79F
OSCEOLA        CLEAR     48  41  76 W9        29.82S
$$

WIZ003>005-009-010-017-018-271200-
NORTH CENTRAL WISCONSIN

CITY           SKY/WX    TMP DP  RH WIND       PRES   REMARKS
MANITOWISH WTR NOT AVBL
ARBOR VITAE    CLOUDY    49  47  91 W12G23    29.62S
WOODRUFF       CLOUDY    49  47  91 W12G23    29.62S
RHINELANDER    LGT RAIN  48  46  93 W16       29.63F
EAGLE RIVER    HVY RAIN  47  47  98 W12G20    29.60S
LAND O LAKES   DRIZZLE   48  46  95 W8        29.60S
PHILLIPS       LGT RAIN  47  45  92 W6        29.66F
TOMAHAWK       DRIZZLE   47  43  85 W10       29.66F
MEDFORD        CLOUDY    49  42  77 W13G20    29.69S
MERRILL        CLOUDY    51  43  73 W13       29.67F
$$

WIZ029-030-035-036-043>047-271200-
CENTRAL WISCONSIN

CITY           SKY/WX    TMP DP  RH WIND       PRES   REMARKS
WAUSAU         CLOUDY    51  42  71 W15G22    29.66F
MOSINEE        NOT AVBL
MARSHFIELD     CLOUDY    51  41  68 W13       29.70F
STEVENS POINT  CLOUDY    49  41  74 W12       29.71S
WAUPACA        CLOUDY    54  41  62 W12G22    29.71S
WAUTOMA        CLOUDY    50  41  71 W9        29.74S
WISC RAPIDS    CLOUDY    50  42  74 W10       29.73F
CAMP DOUGLAS   NOT AVBL
$$

WIZ011>013-019>022-031-037>040-048>050-271200-
NORTHEAST WISCONSIN

CITY           SKY/WX    TMP DP  RH WIND       PRES   REMARKS
ANTIGO         CLOUDY    48  44  84 W12G17    29.65S
SHAWANO        CLOUDY    54  43  66 W12       29.66S
OCONTO         NOT AVBL
STURGEON BAY   LGT RAIN  53  45  74 W13       29.63F
GREEN BAY      CLOUDY    53  43  68 W13G20    29.66F
MANITOWOC      NOT AVBL
APPLETON       CLOUDY    52  39  62 W10       29.68F
CLINTONVILLE   NOT AVBL
OSHKOSH        CLOUDY    51  40  65 W10       29.70F
$$

WIZ032>034-041-042-053>061-271200-
SOUTHWEST WISCONSIN

CITY           SKY/WX    TMP DP  RH WIND       PRES   REMARKS
LA CROSSE      CLEAR     53  39  59 W13       29.80S
SPARTA         CLEAR     49  40  70 W8        29.78F
VIROQUA        CLEAR     47  37  65 W8        29.80F
BOSCOBEL       CLEAR     50  39  66 S6        29.84F
PRAIRIE DU CHI CLEAR     50  35  56 W12       29.85F
PLATTEVILLE    CLEAR     47  39  73 SW8       29.86S
$$

WIZ056-057-062-063-064-067-068-271200-
SOUTH CENTRAL WISCONSIN

CITY           SKY/WX    TMP DP  RH WIND       PRES   REMARKS
REEDSBURG      NOT AVBL
BARABOO/DELLS  CLEAR     50  36  59 W13       29.77S
LONE ROCK      NOT AVBL
MINERAL POINT  CLEAR     46  37  71 W9        29.83F
MADISON        PTCLDY    52  37  56 VRB6      29.78F
MIDDLETON      NOT AVBL
WATERTOWN      CLEAR     47  40  76 SW6       29.77F
MONROE         CLEAR     48  37  66 SW14      29.83S
JANESVILLE     CLEAR     48  37  66 SW8       29.81F
$$

WIZ051-052-058>065-066-070>072-271200-
SOUTHEAST WISCONSIN

CITY           SKY/WX    TMP DP  RH WIND       PRES   REMARKS
MILWAUKEE      CLEAR     53  38  56 W12       29.77F
WAUKESHA       CLEAR     48  37  66 W12G23    29.78F
MILWAUKEE/TIMM CLEAR     50  36  57 SW10      29.77F
RACINE         CLEAR     50  38  63 SW8       29.79F
BURLINGTON     CLEAR     48  37  65 W8        29.80S
KENOSHA        CLEAR     50  39  66 W12       29.80S
FOND DU LAC    CLOUDY    50  40  68 W7        29.73F
SHEBOYGAN      MOCLDY    52  39  61 W12       29.71F
WEST BEND      CLEAR     50  37  62 W9G16     29.74F
JUNEAU         CLEAR     46  39  77 SW8       29.76F
$$

LSZ147-162-271200-
LAKE SUPERIOR

STATION/POSITION TIME  TEMP    WIND        PRES    WAVE
                       AIR SEA DIR/SP/G            HT/PER
                 (UTC) (F)     (DEG/KT/KT) (MB)    (FT/S)
W MID LAKE BUOY  0950   50 46  270/ 17/ 21  999.5F   4/ 6
DEVILS ISLAND    1000   53     280/ 20/ 25 1002.2S
SAXON HARBOR     1040   51     240/  9/ 14 1003.0R
$$

LMZ867-665-643>646-271200-
LAKE MICHIGAN

STATION/POSITION TIME  TEMP    WIND        PRES    WAVE
                       AIR SEA DIR/SP/G            HT/PER
                 (UTC) (F)     (DEG/KT/KT) (MB)    (FT/S)
CHAMBERS ISLAND  1000   56     230/ 10/ 21 1002.0F
N MID LAKE BUOY  0950   58 66  250/ 25/ 31 1000.5F   6/ 6
NORTHPORT PIER   1000   56     260/  6/ 16 1002.0F
KEWAUNEE LAKESHO 1000   55     240/  7/ 12 1004.1F
SHEBOYGAN LAKESH 1000   52     240/ 12/ 14 1006.0F
PORT WASHINGTON  1000   52     260/  7/ 11 1008.1F
ATWATER BUOY     1000   55 58  240/ 14/ 16 1008.1S
MILWAUKEE LAKESH 1010   55     260/ 11/ 14   N/A
S MID LAKE BUOY  0950   62 70  250/ 23/ 27 1007.4F   5/ 6
KENOSHA   LAKESH 1000   54     250/ 10/ 16 1009.1S
$$

TC  - TEMPERATURE IN CELSIUS
VSB - VISIBILITY IN STATUTE MILES
WCI - WIND CHILL INDEX
HX  - HEAT INDEX




USA.gov is the U.S. government's official web portal to all federal, state and local government web resources and services.